Date String (YYYY-MM-DD hh:mm:ss) UTC,Instrument flags,absolute air pressure of the measurement (hPa),sample flow rate (lpm),inlet stack bypass flow (lpm),air temperature of the measurement (°C),ambient temperature measured by the external sensor (°C),aerosol sample conditioner tube jacket temperature (°C),OPC LED temperature (°C),internal box temperature (°C),relative humidity of the measurement (%),span deviation,mass concentration of particles derived from Lorenz-Mie calculation of OPC scattering (μg/m³),mass concentration of particles derived from Lorenz-Mie calculation of OPC scattering (μg/m³),mass concentration of particles derived from Lorenz-Mie calculation of OPC scattering (μg/m³)
DateTimeUTC,F1_M11,P_M11,Q1_M11,Q2_M11,T1_M11,T2_M11,T3_M11,T4_M11,T5_M11,U1_M11,ZSPAN_M11,X2_M11,X0_M11,X1_M11
2024-01-09 11:00:00,SystemResetWarning,0821.9,5.00,000.00,018.7,017.6,000.0,027.2,020.0,7.4,0000.0,0003.66,0007.66,0003.25
2024-01-09 11:01:00,SystemResetWarning,0821.9,5.00,000.00,018.7,017.5,000.0,027.2,020.0,7.4,0000.0,0003.58,0007.01,0003.21
2024-01-09 11:02:00,SystemResetWarning,0821.5,5.00,000.00,018.7,017.4,000.0,027.2,020.0,7.4,0000.0,0003.54,0007.04,0003.19
2024-01-09 11:03:00,SystemResetWarning,0821.5,5.00,000.00,018.7,017.5,000.0,027.2,020.1,7.4,0000.0,0003.52,0007.97,0003.17
2024-01-09 11:04:00,SystemResetWarning,0821.6,5.00,000.00,018.8,018.1,000.0,027.2,020.5,7.4,0000.0,0003.49,0008.08,0003.14
2024-01-09 11:05:00,SystemResetWarning,0821.6,5.00,000.00,018.9,018.8,000.0,027.2,020.7,7.3,0000.0,0003.44,0007.93,0003.12
2024-01-09 11:06:00,SystemResetWarning,0821.7,4.99,000.00,019.0,018.9,000.0,027.2,020.4,7.3,0000.0,0003.42,0007.91,0003.11
2024-01-09 11:07:00,SystemResetWarning,0821.9,4.99,000.00,018.9,018.8,000.0,027.2,020.2,7.3,0000.0,0003.42,0007.96,0003.10
2024-01-09 11:08:00,SystemResetWarning,0821.8,5.00,000.00,018.9,018.6,000.0,027.2,020.0,7.3,0000.0,0003.39,0007.52,0003.08
2024-01-09 11:09:00,SystemResetWarning,0821.4,5.00,000.00,018.9,018.4,000.0,027.2,020.0,7.4,0000.0,0003.39,0007.89,0003.07
2024-01-09 11:10:00,SystemResetWarning,0821.3,5.00,000.00,018.8,018.2,000.0,027.2,020.0,7.4,0000.0,0003.37,0008.10,0003.06
2024-01-09 11:11:00,SystemResetWarning,0821.4,5.00,000.00,018.8,018.1,000.0,027.2,020.0,7.4,0000.0,0003.33,0008.01,0003.05
2024-01-09 11:12:00,SystemResetWarning,0821.4,5.00,000.00,018.8,018.0,000.0,027.2,020.0,7.4,0000.0,0003.35,0008.04,0003.07
2024-01-09 11:13:00,SystemResetWarning,0821.3,5.00,000.00,018.8,017.8,000.0,027.2,020.0,7.4,0000.0,0003.36,0007.99,0003.08
2024-01-09 11:14:00,SystemResetWarning,0821.3,4.99,000.00,018.8,017.8,000.0,027.2,020.0,7.4,0000.0,0003.37,0006.96,0003.09
2024-01-09 11:15:00,SystemResetWarning,0821.3,5.00,000.00,018.7,017.7,000.0,027.2,020.0,7.4,0000.0,0003.37,0006.56,0003.11
2024-01-09 11:16:00,SystemResetWarning,0821.3,5.01,000.00,018.7,017.6,000.0,027.2,020.0,7.4,0000.0,0003.39,0006.65,0003.11
2024-01-09 11:17:00,SystemResetWarning,0821.3,5.00,000.00,018.7,017.5,000.0,027.2,020.0,7.3,0000.0,0003.39,0006.67,0003.11
2024-01-09 11:18:00,SystemResetWarning,0821.3,5.00,000.00,018.7,017.5,000.0,027.2,020.0,7.3,0000.0,0003.37,0006.60,0003.09
2024-01-09 11:19:00,SystemResetWarning,0821.3,5.00,000.00,018.7,017.6,000.0,027.2,020.1,7.3,0000.0,0003.35,0006.47,0003.07
2024-01-09 11:20:00,SystemResetWarning,0821.2,5.00,000.00,018.8,018.2,000.0,027.2,020.5,7.3,0000.0,0003.32,0005.61,0003.06
2024-01-09 11:21:00,SystemResetWarning,0821.3,5.00,000.00,018.9,018.9,000.0,027.2,020.8,7.2,0000.0,0003.34,0005.02,0003.06
2024-01-09 11:22:00,SystemResetWarning,0821.2,4.99,000.00,019.0,019.0,000.0,027.2,020.5,7.2,0000.0,0003.35,0005.67,0003.05
2024-01-09 11:23:00,SystemResetWarning,0821.3,4.99,000.00,019.0,018.8,000.0,027.2,020.2,7.2,0000.0,0003.34,0005.67,0003.02
2024-01-09 11:24:00,SystemResetWarning,0821.3,5.00,000.00,018.9,018.6,000.0,027.2,020.1,7.2,0000.0,0003.31,0005.55,0002.97
2024-01-09 11:25:00,SystemResetWarning,0821.0,5.01,000.00,018.9,018.5,000.0,027.2,020.0,7.2,0000.0,0003.27,0005.32,0002.93
2024-01-09 11:26:00,SystemResetWarning,0821.3,5.01,000.00,018.9,018.4,000.0,027.2,020.0,7.2,0000.0,0003.24,0005.19,0002.88
2024-01-09 11:27:00,SystemResetWarning,0821.0,5.00,000.00,018.8,018.3,000.0,027.2,020.0,7.2,0000.0,0003.18,0005.01,0002.82
2024-01-09 11:28:00,SystemResetWarning,0821.1,5.00,000.00,018.8,018.2,000.0,027.2,020.0,7.1,0000.0,0003.14,0005.00,0002.77
2024-01-09 11:29:00,SystemResetWarning,0821.1,4.99,000.00,018.8,018.1,000.0,027.2,020.0,7.1,0000.0,0003.13,0004.97,0002.74
2024-01-09 11:30:00,SystemResetWarning,0821.1,5.00,000.00,018.8,018.0,000.0,027.2,020.0,7.1,0000.0,0003.14,0005.10,0002.71
2024-01-09 11:31:00,SystemResetWarning,0821.1,4.99,000.00,018.8,017.9,000.0,027.2,020.0,7.0,0000.0,0003.10,0005.02,0002.66
2024-01-09 11:32:00,SystemResetWarning,0821.1,5.00,000.00,018.7,017.9,000.0,027.2,020.0,7.0,0000.0,0003.06,0005.11,0002.62
2024-01-09 11:33:00,SystemResetWarning,0821.1,5.00,000.00,018.7,017.8,000.0,027.2,020.0,7.0,0000.0,0003.02,0004.62,0002.59
2024-01-09 11:34:00,SystemResetWarning,0821.1,4.99,000.00,018.7,017.7,000.0,027.2,020.0,7.0,0000.0,0002.98,0004.59,0002.55
2024-01-09 11:35:00,SystemResetWarning,0821.1,5.01,000.00,018.7,017.7,000.0,027.2,020.0,6.9,0000.0,0002.97,0004.60,0002.52
2024-01-09 11:36:00,SystemResetWarning,0821.0,5.01,000.00,018.7,017.7,000.0,027.2,020.1,6.9,0000.0,0002.98,0004.66,0002.49
2024-01-09 11:37:00,SystemResetWarning,0821.0,5.01,000.00,018.8,018.2,000.0,027.2,020.5,6.9,0000.0,0002.95,0004.67,0002.44
2024-01-09 11:38:00,SystemResetWarning,0821.0,4.99,000.00,018.9,019.0,000.0,027.2,020.8,6.8,0000.0,0002.93,0004.64,0002.42
2024-01-09 11:39:00,SystemResetWarning,0821.0,4.99,000.00,019.0,019.0,000.0,027.2,020.5,6.8,0000.0,0002.95,0004.60,0002.40
2024-01-09 11:40:00,SystemResetWarning,0820.9,5.00,000.00,019.0,018.8,000.0,027.2,020.3,6.8,0000.0,0002.90,0004.54,0002.37
2024-01-09 11:41:00,SystemResetWarning,0820.9,5.00,000.00,019.0,018.7,000.0,027.2,020.1,6.7,0000.0,0002.83,0004.48,0002.34
2024-01-09 11:42:00,SystemResetWarning,0821.0,5.00,000.00,018.9,018.5,000.0,027.2,020.0,6.7,0000.0,0002.82,0004.51,0002.31
2024-01-09 11:43:00,SystemResetWarning,0821.1,5.00,000.00,018.9,018.4,000.0,027.2,020.0,6.7,0000.0,0002.80,0004.36,0002.29
2024-01-09 11:44:00,SystemResetWarning,0820.9,5.00,000.00,018.9,018.3,000.0,027.2,020.0,6.7,0000.0,0002.79,0004.46,0002.26
2024-01-09 11:45:00,SystemResetWarning,0820.9,5.00,000.00,018.8,018.2,000.0,027.2,020.0,6.7,0000.0,0002.77,0004.51,0002.24
2024-01-09 11:46:00,SystemResetWarning,0820.9,5.00,000.00,018.8,018.1,000.0,027.2,020.0,6.6,0000.0,0002.76,0005.13,0002.23
2024-01-09 11:47:00,SystemResetWarning,0821.1,5.00,000.00,018.8,018.0,000.0,027.2,020.0,6.6,0000.0,0002.68,0005.00,0002.20
2024-01-09 11:48:00,SystemResetWarning,0821.1,5.01,000.00,018.8,017.9,000.0,027.2,020.0,6.6,0000.0,0002.66,0004.92,0002.19
2024-01-09 11:49:00,SystemResetWarning,0821.0,5.00,000.00,018.8,017.8,000.0,027.2,020.0,6.6,0000.0,0002.64,0004.92,0002.18
2024-01-09 11:50:00,SystemResetWarning,0821.0,5.00,000.00,018.8,017.8,000.0,027.2,020.0,6.6,0000.0,0002.62,0004.89,0002.17
2024-01-09 11:51:00,SystemResetWarning,0821.0,5.00,000.00,018.8,017.7,000.0,027.2,020.0,6.6,0000.0,0002.58,0004.81,0002.16
2024-01-09 11:52:00,SystemResetWarning,0820.9,5.00,000.00,018.7,017.7,000.0,027.2,020.0,6.6,0000.0,0002.53,0004.69,0002.13
2024-01-09 11:53:00,SystemResetWarning,0820.9,5.00,000.00,018.7,017.6,000.0,027.2,020.0,6.5,0000.0,0002.49,0004.85,0002.11
2024-01-09 11:54:00,SystemResetWarning,0820.9,4.99,000.00,018.7,017.7,000.0,027.2,020.1,6.5,0000.0,0002.44,0004.73,0002.07
2024-01-09 11:55:00,SystemResetWarning,0821.1,5.01,000.00,018.8,018.2,000.0,027.2,020.4,6.5,0000.0,0002.35,0004.32,0002.05
2024-01-09 11:56:00,SystemResetWarning,0821.1,5.01,000.00,018.9,018.9,000.0,027.2,020.8,6.5,0000.0,0002.33,0004.14,0002.03
2024-01-09 11:57:00,SystemResetWarning,0820.9,4.99,000.00,019.0,019.1,000.0,027.2,020.6,6.4,0000.0,0002.26,0003.63,0002.01
2024-01-09 11:58:00,SystemResetWarning,0820.8,4.99,000.00,019.0,018.9,000.0,027.2,020.3,6.4,0000.0,0002.24,0003.28,0002.00
2024-01-09 11:59:00,SystemResetWarning,0820.8,5.00,000.00,019.0,018.8,000.0,027.2,020.2,6.4,0000.0,0002.25,0003.30,0001.98
